Regional Weather Roundup
Issued by NWS Wakefield, VA

Home | Current Version | Previous Version | Graphics & Text | Print | Product List | Glossary On
Versions: 1 2 3 4 5 6 7 8 9 10 11 12 13 14 15 16 17 18 19 20 21 22 23 24 25 26 27 28 29 30 31 32 33 34 35 36 37 38 39 40 41 42 43 44 45 46 47 48 49 50
000
ASUS41 KAKQ 231115
RWRAKQ

REGIONAL WEATHER ROUNDUP
NATIONAL WEATHER SERVICE WAKEFIELD VA
700 AM EDT MON MAY 23 2016

Note: "fair" indicates few or no clouds below 12,000 feet with no
significant weather and/or obstructions to visibility. * = Denotes
station may not report precipitation (e.g., rain,snow,etc.),
thunder or fog.

VAZ042-051-052>054-056-231200-
NORTHERN VIRGINIA

CITY           SKY/WX    TMP DP  RH WIND       PRES   REMARKS
WASH NATIONAL  CLOUDY    58  55  90 NW5       29.94R
DULLES         CLOUDY    55  54  96 NW3       29.94R
FORT BELVOIR   PTSUNNY   57  55  94 CALM      29.94R
QUANTICO       CLOUDY    56  55  97 NW6       29.95R
FREDERICKSBRG* RAIN      55  55 100 NW3       29.94R
STAFFORD*      RAIN      55  53  95 CALM      29.99R
WARRENTON      LGT RAIN  56  52  86 CALM      29.95R
CULPEPER*      DRIZZLE   56  56 100 CALM      29.96S
MANASSAS*      CLOUDY    55  55 100 CALM      29.95R
LEESBURG*      CLOUDY    55  55 100 W3        29.95S
WINCHESTER     CLOUDY    54  54 100 CALM      29.96R FOG
FRONT ROYAL*   CLOUDY    52  52 100 CALM      29.96R
LURAY*         CLOUDY    54  54 100 CALM      29.97R
$$

VAZ048-049-060>072-079>083-231200-
CENTRAL AND SOUTH CENTRAL VIRGINIA

CITY           SKY/WX    TMP DP  RH WIND       PRES   REMARKS
RICHMOND       HVY RAIN  54  53  97 N14       29.91R FOG
CHESTERFIELD*  CLOUDY    55  43  62 N7        29.92R
PETERSBURG*    LGT RAIN  57  57 100 N9        29.90R
HANOVER        RAIN      54  54 100 VRB5      29.95R FOG
TAPPAHANNOCK*  RAIN      56  56 100 N5        29.92R
QUINTON*       CLOUDY    55  54  99 N6        29.90R FOG
CHARLOTTSVILLE LGT RAIN  55  53  93 CALM      29.96R
GORDONSVILLE*  CLOUDY    55  54  97 N3        29.95S
ORANGE*        LGT RAIN  55  55 100 CALM      29.97S
LOUISA*        LGT RAIN  57  55  94 N3        29.94R
BUMPASS*       CLOUDY    54  54  99 NE3       29.95R
FARMVILLE*     LGT RAIN  55  55 100 N14       29.93R
CREWE*         CLOUDY    55  55 100 N5        29.91R
FORT PICKETT*  NOT AVBL
CHASE CITY*    CLOUDY    53  52  95 N6        29.91R
CLARKSVILLE*   CLOUDY    52  52 100 CALM      29.91R
SOUTH HILL*    CLOUDY    53  53 100 NW3       29.95R
LAWRENCEVILLE* CLOUDY    54  54 100 NW6       29.88R
EMPORIA*       LGT SNOW  54  54 100 W5        29.89R
$$

VAZ088>098-231200-
SOUTHEAST VIRGINIA

CITY           SKY/WX    TMP DP  RH WIND       PRES   REMARKS
NORFOLK        RAIN      58  56  93 N5        29.84S FOG
VIRGINIA BEACH LGT RAIN  60  55  83 NW3       29.84R FOG
NORFOLK NAVAL  RAIN      58  57  97 N9        29.86R FOG
WEST POINT*    CLOUDY    56  55  99 N3        29.91R
SALUDA*        CLOUDY    57  56  97 N8        29.88R
NEWPORT NEWS   RAIN      57  56  96 NE8       29.86R FOG
LANGLEY AFB    RAIN      57  57 100 N13       29.86R VSB 3/4
FORT EUSTIS    LGT RAIN  57  57 100 NE6       29.85R
WILLIAMSBURG*  CLOUDY    57  57 100 NE5       29.88R
HR EXEC AP*    CLOUDY    55  54  94 NW3       29.88R
FRANKLIN*      DRIZZLE   54  53  96 W5        29.87R
US460-WAKEFLD  RAIN      56  54  93 VRB5      29.87R FOG
$$

VAZ020-022-025-037-045-231200-
WEST CENTRAL AND SOUTHWEST VIRGINIA

CITY           SKY/WX    TMP DP  RH WIND       PRES   REMARKS
STAUNTON*      CLOUDY   N/A N/A N/A CALM      29.99R
WAYNESBORO*    CLOUDY    51  50  96 N7        29.98R
HOT SPRINGS VA CLOUDY    47  47 100 N10       29.98R
LYNCHBURG      LGT RAIN  52  51  97 N3        29.96R
DANVILLE       CLOUDY    54  51  90 N7        29.94R
SOUTH BOSTON*  CLOUDY    54  53  95 N7        29.93R
MARTINSVILLE   MOCLDY    43  43 100 CALM      29.98R
ROANOKE        CLOUDY    54  49  83 E7        29.99R
BLACKSBURG     CLOUDY    49  48  97 CALM      30.01R
DUBLIN*        FAIR      52  48  86 NW3       30.00R
MARION*        FOG       46  45  96 CALM      30.04R VSB<1/4
HILLSVILLE*    FAIR      47  45  92 NW9       29.97R
RICHLANDS*     HAZE      46  35  66 CALM      30.03R VSB<1/4
WISE*          FAIR      46  46 100 CALM      30.04R FOG
ABINGDON*      FOG       47  47 100 CALM      30.02R VSB<1/4
$$

MDZ021>025-VAZ099-100-231200-
SOUTHERN MARYLAND AND THE DELMARVA PENINSULA

CITY           SKY/WX    TMP DP  RH WIND       PRES   REMARKS
PATUXENT RIVER LGT RAIN  58  55  90 N6        29.91R
BAY BRIDGE APT CLOUDY    59  57  94 NW3       29.92R FOG
LEONARDTOWN    CLOUDY    55  54  94 CALM      29.93R
DOVER          PTSUNNY   56  56 100 N5        29.91R
GEORGETOWN     CLOUDY    57  54  89 NE6       29.90R
EASTON         CLOUDY    57  57 100 CALM      29.95R FOG
CAMBRIDGE        N/A     55  54  94 CALM      29.91R
SALISBURY      CLOUDY    56  54  93 N6        29.88R
OCEAN CITY     CLOUDY    57  52  83 NE12      29.87R
WALLOPS ISLAND LGT RAIN  56  53  90 N8        29.87R
ACCOMACK*      CLOUDY    55  52  88 N7        29.87R
$$

NCZ012>017-030>032-231200-
NORTH CENTRAL AND EASTERN NORTH CAROLINA

CITY           SKY/WX    TMP DP  RH WIND       PRES   REMARKS
ROANOKE RAPIDS CLOUDY    54  52  94 NW5       29.88R
RALEIGH        MOCLDY    53  52  96 NW3       29.92R
ELIZABETH CITY CLOUDY    56  54  93 W7        29.85R
AHOSKIE*       CLOUDY    54  52  95 CALM      29.87S
EDENTON*       CLOUDY   N/A N/A N/A NW3       29.87R
CURRITUCK*     CLOUDY    56  56 100 W6        29.85R
KILL DEVIL HLS CLOUDY    58  56  94 CALM      29.82R
MANTEO         CLOUDY    58  56  92 W8        29.84R
CAPE HATTERAS  PTSUNNY   59  54  83 NW8G17    29.84R
TARBORO*       CLOUDY    53  52  96 W5        29.90R
GOLDSBORO      MOSUNNY   53  53 100 W6        29.88
WASHINGTON     PTSUNNY   53  51  94 W3        29.88R
GREENVILLE     CLOUDY    54  52  94 NW3       29.91R
NEW BERN       MOSUNNY   55  52  89 NW6       29.90R
WILMINGTON     PTCLDY    56  54  93 NW5       29.91R
$$

VAZ048-231200-
ELSEWHERE

CITY           SKY/WX    TMP DP  RH WIND       PRES   REMARKS
HARRISBURG PA  CLOUDY    58  53  84 NW7       29.93R
BALTIMORE      CLOUDY    56  55  97 W3        29.92R FOG
ANNAPOLIS      CLOUDY    58  56  93 NW3       29.92R FOG
ANDREWS AFB    LGT RAIN  56  55  95 W5        29.92R
PHILADELPHIA   CLOUDY    57  53  86 CALM      29.92R
HENDERSON NC   CLOUDY    51  49  94 N6        29.91R
GREENSBORO     MOCLDY    52  47  83 NW7       29.94R
ROCKY MOUNT    CLOUDY    53  52  96 NW6       29.90R
$$

VAZ100-231200-
MARINE

STATION/POSITION TIME  TEMP    WIND        PRES    WAVE   SWELL
                       AIR SEA DIR/SP/G            HT/PER HT/PER
                 (UTC) (F)     (DEG/KT/KT) (MB)    (FT/S) (FT/S)
BRANDYWINE LGT   1000   58      40/ 11/ 12 1012.0R
CAPE MAY NJ      1000   56 62   30/  2/  3 1011.7R
LEWES DE         1000   58 58   40/  9/ 11 1011.8R
15NM E FENWICK I 1050   56 55              1011.1F   4/ 8
OCEAN-CITY-INLET 1000   57 59   40/  7/ 15 1010.5S
WACHAPREAGUE VA  1000   56 63   20/ 10/ 12 1010.1R
THOMAS POINT MD  1100   57 60  330/  6/  6 1014.5R
GOOSES REEF MD   1100   59 60   10/  8/ 10 1014.2R
COVE POINT MD    1000   58      30/ 12/ 14 1012.8R
BISHOPS HEAD MD  1000   58 61   20/  9/ 15 1011.8R
PINEY POINT MD   1000           10/  7/  8   N/A
POTOMAC MD       1100   58 62   30/ 12/ 16 1011.7R   1
CAMBRIDGE MD     1000   58 62  360/  5/  7 1011.4R
LEWISETTA VA     1000   58 62   40/  8/ 14 1011.6R
RAPPAHANNOCK LGT 1000           30/ 23/ 26 1011.0R
STINGRAY PT      1100   59 63   30/ 17/ 21 1011.6R   3/ 3
YORK RVR RNG VA  1000   58      40/ 15/ 18 1009.8R
YORKTOWN VA      1000   57 64   20/  7/  9 1010.3R
JAMESTOWN VA     1100   56 66  360/  6/ 10   N/A     0
DOMINION TERM VA 1000   57      CALM  /  2 1010.2R
KIPTOPEKE VA     1000      63   50/  7/ 11   N/A
CHES BAY BRIDGE  1000   57 63  360/  4/  5 1009.7R
CAPE HENRY VA    1000   57      20/  5/  6   N/A
CHESAPEAKE LGHT  1000   56      20/  4/  5 1010.5R
WILLOUBY STN VA  1000   57      10/  5/  7 1011.1R
CAPE HENRY BUOY  1012      58                N/A     3/ 9   2/11
1ST LANDING BUOY 1100   57 62   60/ 12/ 14 1010.7R   2/ 4
CAPE CHARLES BUO 1026      59                N/A     4/11   3/11
OFFSHORE WE BUOY 1021      58                N/A     4/ 9   3/ 9
64NM E OF VA BCH 1050   58 68  360/ 12/ 14 1009.0R   4/ 9   3/ 9
DUCK PIER NC     1000   57 62  300/ 10/ 12 1009.2R
44100 DUCK FRF   1024      59                N/A     4/ 8   2/11
44056 DUCK FRF   1011      60                N/A     3/ 8   2/12
OREGON INLET NC  1000   59 65  320/  7/  9 1009.6R
HATTERAS NC      1000   60 68  300/ 12/ 14 1009.6R
DIAMOND SHLS NC  1050   61 68  320/ 12/ 14 1010.4R   4/ 9   3/ 9
CAPE LOOKOUT NC  1100   59     310/  8/ 10 C1F1C2F2C3F3C4F4C5F5C6F6C7F7C8M1C9!


USA.gov is the U.S. government's official web portal to all federal, state and local government web resources and services.